This is the latest recevied weather packets stored in our database for station/object KC3ELT-10. If no packets are shown the sender has not sent any weather packets the latest 10 day(s).
| Time | Temp. | Humidity | Pressure | Rain* | Wind** | Luminosity | Snow |
|---|---|---|---|---|---|---|---|
| 1777708679 | 7.22° C | 84% | 1005.9 hPa | 0 mm | 0 m/s | - | - |
| 1777708379 | 7.22° C | 84% | 1005.9 hPa | 0 mm | 0.45 m/s, 136° | - | - |
| 1777708079 | 7.22° C | 83% | 1005.9 hPa | 0 mm | 0 m/s | - | - |
| 1777707779 | 7.22° C | 83% | 1005.9 hPa | 0 mm | 0.45 m/s, 298° | - | - |
| 1777707479 | 7.78° C | 83% | 1005.9 hPa | 0 mm | 0.45 m/s, 290° | - | - |
| 1777707179 | 7.78° C | 82% | 1005.9 hPa | 0 mm | 0.45 m/s, 348° | - | - |
| 1777706879 | 7.78° C | 82% | 1005.7 hPa | 0 mm | 1.79 m/s, 319° | - | - |
| 1777706579 | 7.78° C | 82% | 1005.7 hPa | 0 mm | 0.89 m/s, 348° | - | - |
| 1777706279 | 7.78° C | 82% | 1005.7 hPa | 0 mm | 0.45 m/s, 346° | - | - |
| 1777705979 | 7.78° C | 82% | 1005.8 hPa | 0 mm | 0.89 m/s, 321° | - | - |
| 1777705679 | 7.78° C | 82% | 1005.8 hPa | 0 mm | 2.24 m/s, 0° | - | - |
| 1777705379 | 7.78° C | 82% | 1005.8 hPa | 0 mm | 0.89 m/s, 354° | - | - |
| 1777705079 | 7.78° C | 82% | 1005.9 hPa | 0 mm | 1.34 m/s, 347° | - | - |
| 1777704779 | 7.78° C | 82% | 1005.9 hPa | 0 mm | 0.89 m/s, 314° | - | - |
| 1777704479 | 7.78° C | 81% | 1005.9 hPa | 0 mm | 1.34 m/s, 359° | - | - |
| 1777704179 | 7.78° C | 81% | 1006.4 hPa | 0 mm | 1.34 m/s, 0° | - | - |
| 1777703879 | 8.33° C | 81% | 1006.4 hPa | 0 mm | 1.34 m/s, 350° | - | - |
| 1777703579 | 8.33° C | 80% | 1006.4 hPa | 0 mm | 0.89 m/s, 347° | - | - |
| 1777703279 | 8.33° C | 80% | 1006.5 hPa | 0 mm | 0.89 m/s, 339° | - | - |
| 1777702979 | 8.33° C | 79% | 1006.5 hPa | 0 mm | 1.34 m/s, 335° | - | - |
| 1777702679 | 8.89° C | 79% | 1006.5 hPa | 0 mm | 1.79 m/s, 342° | - | - |
| 1777702379 | 8.89° C | 78% | 1006.5 hPa | 0 mm | 2.24 m/s, 348° | - | - |
| 1777702079 | 8.89° C | 78% | 1006.5 hPa | 0 mm | 0.89 m/s, 330° | - | - |
| 1777701779 | 8.89° C | 78% | 1006.5 hPa | 0 mm | 1.34 m/s, 342° | - | - |
| 1777701479 | 8.89° C | 78% | 1006.5 hPa | 0 mm | 0.89 m/s, 339° | - | - |
* Rain latest hour (hover to see other rain measurements)
** Current wind speed in m/s (hover to see current wind gust speed)